Temp
9 9 9 9 9 8 9 9 9 9 9 8 9 9 8 8 9 9 9 9 9 9 9 9 9 9 9 9 9 9 9 9 9 9 9 9 9 9 8 8 8 8 8
9 9 8 8 9 8 8 9 9 9 9 8 8 8 8 8 8 9 9 9 9 9 9 9 10 10 9 9 9 9 9 9 8 8 9 8 8 8 8 8 8 8 8
9 9 8 8 8 8 9 9 9 9 9 8 8 8 8 8 9 9 9 9 9 9 9 9 10 9 9 9 9 9 9 9 9 8 9 9 9 9 8 8 8 8 8
9 8 8 8 8 8 8 8 9 9 9 8 8 8 9 9 9 9 9 9 9 9 9 9 9 9 9 9 9 9 9 9 9 8 7 7 8 9 9 8 8 8 8
9 8 8 7 7 8 8 8 8 8 8 9 8 8 9 9 9 9 9 9 9 9 9 9 9 9 9 9 9 9 9 9 9 8 8 9 9 9 9 9 9 9 9
9 8 8 7 7 8 8 8 8 8 8 8 8 9 9 9 9 9 9 9 9 9 9 9 9 9 9 9 9 9 9 9 10 7 9 9 9 9 9 9 9 9 8
8 8 8 8 8 8 8 8 8 7 7 8 8 9 9 9 9 9 9 9 9 9 9 9 9 9 9 9 9 9 9 10 10 9 9 10 10 10 10 10 9 9 9
8 8 8 8 8 7 7 7 7 7 7 8 8 8 8 8 8 9 9 9 9 9 9 9 9 9 9 10 10 10 10 10 10 10 10 10 10 10 10 10 9 9 9
7 8 8 8 8 8 8 8 7 7 7 8 8 8 8 8 8 9 9 10 9 9 9 9 9 10 10 10 10 10 10 10 10 10 10 10 10 10 10 9 9 8 8
7 7 7 8 8 8 8 7 7 7 7 7 8 8 8 8 9 9 9 9 9 9 9 9 9 10 10 10 10 10 10 10 10 10 10 10 10 10 9 9 9 9 9
7 7 7 7 8 8 8 7 7 7 7 8 8 8 8 8 9 9 9 9 9 9 9 9 9 10 10 9 9 10 10 10 7 10 10 10 10 10 9 9 9 8 8
7 6 7 7 7 7 7 7 6 6 7 8 8 8 8 6 9 9 9 9 9 9 9 9 9 10 10 10 9 9 10 10 10 10 10 10 10 9 9 9 9 8 8
7 7 7 7 6 6 6 6 6 7 7 8 8 9 8 8 8 8 8 8 8 8 9 8 9 10 9 7 9 8 9 9 9 10 10 10 10 9 9 9 9 9 8
7 8 7 7 7 6 6 6 6 7 7 8 8 8 8 6 6 7 6 6 8 6 8 8 7 9 10 10 7 7 8 8 8 9 10 10 10 9 9 9 8 8 8
7 6 7 8 7 7 7 6 7 7 7 7 8 8 7 6 7 5 6 9 8 6 6 7 7 8 10 9 9 10 8 10 10 9 10 10 10 9 9 9 8 8 8
7 6 7 8 8 8 8 8 7 8 7 7 8 8 6 6 7 5 6 6 6 8 7 7 8 8 8 8 10 11 10 10 10 10 10 10 10 10 9 9 8 8 8
7 6 8 7 9 8 8 8 8 7 5 5 6 8 8 8 8 6 6 7 7 8 8 8 8 8 8 9 9 10 10 11 11 10 10 10 10 9 9 9 9 9 9
7 6 8 6 8 9 9 8 8 8 7 6 6 8 9 7 8 7 7 9 7 7 7 7 7 8 8 7 9 8 9 10 11 10 10 10 9 8 9 9 9 9 9
7 8 8 6 7 8 9 8 6 7 7 8 6 6 8 8 8 8 7 7 8 7 7 8 8 8 8 8 9 10 10 9 9 8 9 9 8 9 8 9 9 9 9
8 9 8 8 8 8 8 8 6 8 5 6 5 5 8 9 9 8 6 9 8 7 7 9 9 9 8 8 9 9 8 8 8 8 8 8 9 9 8 9 9 9 8
8 9 9 8 9 8 8 8 8 6 6 5 6 8 9 9 9 9 7 8 8 7 8 8 9 8 8 8 10 9 9 10 9 9 9 8 8 8 9 9 9 9 8
8 9 9 9 9 8 8 8 7 7 6 6 6 9 9 9 9 9 9 7 7 7 9 9 9 9 7 8 9 9 9 9 10 9 9 9 9 8 8 8 9 9 9
8 9 9 9 9 8 9 9 9 9 7 8 9 8 9 9 9 9 9 9 9 9 7 9 9 10 8 8 10 10 9 9 9 9 9 8 9 8 8 9 9 9 8
8 9 9 9 9 9 9 9 9 9 8 6 7 7 9 9 9 9 9 9 9 9 9 10 9 10 10 9 8 8 9 10 10 10 9 9 9 9 8 8 9 8 8
9 9 9 9 9 9 9 9 9 9 8 7 6 7 8 8 9 9 9 10 9 9 9 9 10 10 9 9 7 7 8 9 9 10 9 9 9 8 8 8 8 9 8
9 10 10 10 10 10 9 9 9 9 9 7 8 8 8 8 9 9 9 9 9 9 9 10 10 10 10 10 9 10 9 8 8 8 8 8 8 9 8 8 8 8 8
Height
3165 3166 3168 3170 3173 3175 3176 3178 3180 3181 3182 3184 3185 3186 3188 3189 3191 3192 3192 3193 3193 3192 3193 3194 3195 3194 3195 3195 3194 3194 3195 3196 3197 3197 3198 3199 3199 3200 3200 3200 3199 3201 3202
3166 3166 3169 3171 3173 3176 3178 3179 3181 3182 3183 3185 3186 3188 3189 3189 3192 3193 3193 3194 3194 3194 3194 3196 3196 3196 3195 3196 3197 3197 3197 3198 3199 3199 3200 3199 3200 3200 3200 3201 3202 3202 3203
3166 3168 3170 3171 3172 3175 3178 3181 3182 3183 3185 3186 3187 3188 3188 3190 3193 3194 3194 3195 3195 3196 3196 3197 3197 3197 3197 3198 3199 3199 3199 3200 3200 3201 3201 3201 3202 3202 3202 3203 3204 3204 3204
3166 3168 3170 3171 3173 3176 3179 3182 3184 3185 3186 3187 3188 3187 3191 3192 3193 3195 3196 3197 3197 3198 3198 3199 3199 3199 3200 3201 3201 3201 3201 3202 3202 3203 3203 3205 3204 3204 3204 3204 3203 3204 3205
3166 3168 3170 3170 3173 3177 3180 3183 3185 3186 3187 3188 3188 3190 3192 3194 3194 3196 3197 3198 3199 3199 3200 3201 3201 3201 3202 3202 3202 3202 3203 3203 3204 3205 3206 3205 3205 3206 3206 3206 3206 3206 3205
3165 3168 3170 3171 3173 3177 3180 3182 3185 3187 3188 3189 3190 3193 3193 3194 3196 3198 3199 3200 3201 3202 3202 3203 3203 3204 3204 3204 3204 3204 3205 3205 3205 3206 3207 3208 3208 3209 3208 3208 3208 3208 3207
3166 3169 3170 3172 3174 3177 3181 3182 3184 3186 3188 3190 3193 3194 3195 3196 3197 3199 3201 3202 3203 3203 3204 3205 3205 3205 3205 3205 3206 3206 3207 3208 3208 3209 3210 3211 3211 3212 3211 3211 3210 3210 3209
3167 3169 3170 3172 3174 3177 3179 3182 3184 3186 3189 3192 3194 3195 3196 3197 3198 3201 3203 3203 3204 3205 3206 3207 3208 3207 3208 3209 3210 3210 3211 3212 3211 3212 3213 3214 3215 3215 3215 3214 3213 3212 3211
3168 3170 3171 3172 3174 3176 3179 3181 3184 3186 3190 3193 3195 3195 3196 3197 3201 3203 3204 3205 3206 3207 3208 3209 3209 3210 3211 3212 3213 3214 3214 3215 3214 3216 3216 3217 3218 3218 3218 3217 3216 3213 3212
3171 3173 3173 3175 3175 3176 3178 3181 3184 3187 3190 3194 3196 3197 3199 3201 3203 3205 3206 3207 3207 3209 3210 3211 3212 3213 3214 3215 3216 3216 3217 3217 3218 3219 3219 3220 3220 3220 3220 3218 3216 3211 3211
3173 3173 3174 3176 3175 3176 3177 3181 3185 3187 3192 3195 3198 3200 3202 3203 3205 3206 3207 3209 3209 3211 3212 3214 3214 3215 3216 3217 3219 3220 3220 3220 3225 3222 3222 3222 3222 3222 3220 3219 3218 3215 3213
3176 3178 3179 3178 3177 3178 3179 3182 3185 3190 3193 3196 3199 3201 3201 3205 3206 3209 3209 3211 3212 3213 3215 3216 3217 3218 3219 3219 3222 3223 3223 3224 3224 3225 3224 3224 3223 3223 3222 3220 3220 3218 3219
3179 3180 3180 3180 3181 3182 3183 3184 3188 3192 3195 3196 3200 3203 3203 3206 3208 3211 3212 3212 3214 3215 3216 3218 3219 3219 3220 3224 3225 3229 3226 3226 3227 3226 3226 3226 3225 3224 3222 3220 3220 3219 3217
3182 3183 3183 3184 3186 3187 3188 3189 3192 3194 3198 3201 3200 3203 3206 3209 3213 3214 3217 3215 3216 3218 3218 3219 3224 3222 3222 3224 3226 3227 3228 3230 3230 3228 3227 3227 3225 3224 3223 3221 3219 3217 3216
3188 3186 3185 3186 3188 3189 3191 3194 3197 3199 3200 3201 3203 3204 3208 3213 3212 3215 3215 3218 3219 3220 3222 3222 3224 3225 3225 3225 3226 3226 3228 3229 3229 3229 3228 3227 3226 3225 3224 3222 3220 3217 3214
3189 3188 3189 3187 3189 3192 3194 3195 3199 3199 3202 3204 3205 3206 3208 3213 3213 3215 3216 3220 3222 3223 3225 3224 3224 3225 3227 3230 3228 3228 3228 3229 3229 3229 3229 3228 3227 3226 3225 3223 3220 3217 3213
3189 3189 3188 3190 3190 3191 3193 3196 3198 3202 3204 3206 3205 3207 3209 3212 3213 3215 3219 3221 3222 3221 3223 3224 3225 3227 3229 3230 3229 3229 3229 3229 3229 3229 3229 3228 3227 3226 3224 3223 3221 3218 3215
3189 3187 3187 3192 3190 3192 3194 3196 3198 3201 3203 3208 3207 3207 3210 3213 3214 3216 3220 3219 3219 3222 3225 3227 3228 3230 3229 3229 3229 3229 3229 3229 3229 3229 3228 3228 3227 3225 3223 3222 3220 3219 3216
3186 3186 3187 3191 3190 3192 3195 3197 3200 3202 3203 3205 3206 3208 3209 3211 3214 3215 3221 3219 3219 3223 3224 3221 3228 3228 3229 3230 3230 3231 3230 3230 3230 3232 3229 3227 3226 3225 3224 3222 3221 3219 3217
3185 3186 3187 3188 3189 3192 3194 3197 3199 3201 3203 3206 3207 3209 3210 3211 3214 3216 3219 3218 3220 3225 3225 3222 3224 3225 3227 3229 3230 3234 3233 3233 3233 3232 3232 3231 3226 3225 3223 3222 3220 3218 3216
3184 3186 3188 3188 3190 3191 3193 3196 3199 3202 3203 3205 3209 3207 3209 3211 3213 3215 3218 3219 3220 3221 3222 3223 3223 3225 3229 3228 3229 3232 3235 3232 3232 3233 3234 3232 3228 3224 3223 3221 3219 3217 3215
3184 3185 3187 3188 3190 3191 3192 3195 3198 3200 3203 3204 3206 3206 3208 3209 3212 3214 3215 3218 3218 3221 3221 3223 3223 3224 3227 3227 3228 3231 3231 3225 3224 3228 3232 3229 3225 3225 3225 3221 3219 3217 3214
3183 3184 3186 3187 3189 3190 3191 3193 3196 3198 3200 3202 3204 3205 3206 3208 3210 3212 3214 3215 3217 3218 3221 3222 3223 3223 3224 3226 3228 3230 3230 3226 3227 3230 3230 3229 3225 3224 3223 3220 3216 3216 3213
3184 3183 3184 3186 3188 3190 3191 3192 3194 3197 3199 3202 3203 3204 3205 3208 3208 3210 3212 3213 3215 3216 3217 3220 3221 3222 3223 3224 3229 3229 3230 3230 3231 3232 3233 3223 3225 3225 3222 3222 3220 3216 3213
3183 3181 3183 3185 3186 3188 3190 3192 3193 3195 3197 3199 3202 3202 3204 3206 3207 3208 3209 3211 3213 3214 3216 3217 3218 3221 3221 3223 3225 3226 3226 3228 3228 3228 3228 3227 3228 3225 3224 3222 3220 3218 3213
3180 3179 3180 3183 3185 3186 3188 3190 3192 3193 3195 3198 3200 3200 3202 3203 3205 3206 3207 3209 3210 3212 3214 3215 3217 3219 3220 3220 3221 3222 3223 3226 3225 3224 3223 3224 3225 3225 3222 3220 3220 3216 3214
Wind_Speed
10 13 16 18 19 17 18 14 13 11 11 12 10 11 11 9 7 7 6 7 7 7 10 10 9 8 7 8 9 10 10 10 10 10 11 12 13 11 11 9 11 9 7
9 10 13 14 20 20 17 15 12 11 11 11 9 8 8 8 6 5 6 9 8 9 9 10 9 8 10 9 9 10 11 11 11 11 11 12 11 10 10 9 7 5 5
10 10 8 11 18 20 17 14 13 12 11 11 10 9 7 9 9 9 10 11 10 10 10 10 9 9 10 9 10 11 11 11 10 10 9 12 9 9 8 7 6 5 4
11 12 9 8 18 18 17 14 15 11 9 9 8 9 10 10 12 12 11 12 12 11 11 9 9 9 9 9 9 10 11 10 9 12 17 4 9 8 7 7 6 5 4
9 11 10 9 22 19 17 15 13 10 6 9 10 10 11 12 13 11 13 12 11 12 10 9 9 9 9 9 11 11 11 11 10 16 11 11 11 10 9 8 7 7 6
11 13 10 11 18 19 18 15 15 15 8 10 12 12 13 14 13 11 11 11 11 11 10 10 10 10 11 12 13 12 12 11 12 10 15 14 13 12 12 11 11 8 7
12 13 12 11 16 16 19 15 12 14 11 13 14 14 14 15 13 11 11 11 10 10 11 11 10 12 12 13 13 14 13 12 18 15 13 14 13 13 13 12 11 9 6
12 11 10 12 14 14 16 15 12 13 15 15 15 13 13 14 12 11 11 10 9 10 10 11 10 12 13 13 14 14 14 11 17 14 14 14 13 13 13 13 13 10 8
10 9 10 13 14 16 16 16 14 19 17 17 15 14 15 13 13 11 9 8 9 9 9 10 11 13 14 15 14 13 12 12 16 13 13 12 11 11 12 14 25 16 7
15 13 9 8 8 12 15 16 18 23 20 17 18 13 12 11 11 10 9 9 10 9 9 10 12 13 14 14 13 12 11 12 15 12 11 10 9 9 9 11 22 27 12
11 15 10 11 10 13 14 20 26 24 22 20 19 13 11 11 9 9 11 11 11 10 10 10 12 11 12 13 11 9 9 13 5 8 9 8 6 6 5 6 12 13 22
18 19 16 14 18 20 22 23 28 23 23 23 20 15 11 11 11 10 13 11 10 9 9 9 11 9 8 12 9 8 10 7 10 8 8 6 5 5 5 6 9 9 13
16 17 17 16 17 18 18 21 27 25 23 27 19 14 15 14 12 12 11 10 9 8 10 9 9 7 6 14 2 2 7 8 4 6 5 4 3 4 3 5 14 15 12
12 14 15 15 13 14 20 18 26 24 27 22 14 12 13 12 10 10 6 7 9 3 6 14 3 5 6 6 8 10 4 7 3 3 3 2 2 3 6 9 11 14 14
11 9 4 8 10 17 20 24 23 21 16 11 10 13 14 7 12 9 12 6 12 6 3 7 5 3 5 5 7 9 7 5 5 2 2 2 3 4 8 11 16 19 20
13 12 13 8 8 10 12 11 15 10 13 12 5 9 20 8 11 8 9 5 5 10 8 6 6 5 6 2 3 8 8 5 2 1 3 3 5 7 10 14 18 20 21
15 15 12 10 9 7 9 12 10 17 8 6 7 9 10 13 11 13 10 8 7 13 8 6 5 10 8 4 4 6 5 3 1 1 3 7 9 10 13 16 16 18 20
16 17 13 12 11 10 9 10 12 9 13 13 11 11 9 12 10 10 11 4 7 9 5 5 4 7 5 4 7 6 5 2 1 3 4 7 10 11 18 15 14 16 19
16 15 15 17 13 11 10 11 14 16 10 12 11 8 10 10 11 10 10 11 9 9 10 11 3 15 5 3 4 6 3 2 3 6 7 8 13 14 11 13 14 14 16
15 15 16 15 14 15 14 12 13 11 11 10 8 10 11 12 12 11 8 8 10 6 3 12 12 8 12 9 6 8 5 5 6 4 6 11 10 15 11 14 15 16 15
15 15 15 17 16 15 13 13 11 11 12 12 11 12 12 12 12 11 9 9 8 15 19 10 6 1 7 5 9 5 9 15 8 8 8 8 9 11 10 12 14 16 14
13 15 15 15 16 15 15 16 15 13 11 11 12 11 12 11 12 12 12 12 12 10 11 11 9 9 5 5 7 8 8 13 4 5 12 10 11 8 12 18 13 14 13
16 14 14 14 15 14 17 18 18 17 17 15 12 10 10 9 9 11 12 12 10 11 9 15 14 12 10 14 7 4 5 11 7 5 14 7 19 8 12 12 17 15 12
18 13 16 16 16 17 17 17 19 17 14 12 10 9 9 10 10 11 13 13 12 12 16 13 16 16 12 7 9 7 7 6 8 4 5 17 18 14 17 19 9 19 14
19 16 16 18 18 18 17 17 17 17 16 16 11 18 13 11 11 11 12 13 12 10 14 14 16 17 16 13 8 9 9 9 7 8 4 6 9 13 10 10 16 7 20
20 16 18 18 17 16 18 17 17 18 18 15 12 13 16 13 11 9 10 10 11 10 10 12 13 16 18 16 15 13 10 7 11 11 9 9 10 11 15 6 7 14 10
Wind_Direction
174 184 191 183 178 163 160 157 159 157 147 156 132 141 134 125 117 108 119 132 122 103 101 98 94 99 98 84 78 82 89 97 101 107 103 99 97 100 101 97 104 98 104
168 165 172 183 182 175 169 167 168 163 155 155 158 148 145 134 123 105 133 137 132 113 109 102 99 102 93 91 93 94 95 94 98 103 105 101 106 109 105 98 93 94 100
169 163 169 193 180 175 177 174 169 164 162 160 165 158 141 127 112 109 128 135 123 114 103 99 100 100 94 96 94 95 91 92 98 105 100 100 104 105 104 102 98 95 103
179 180 176 188 185 179 174 172 172 168 164 161 166 148 130 121 114 122 127 124 117 111 99 99 104 97 98 100 98 91 92 95 96 87 73 108 97 101 105 110 119 117 135
177 187 184 188 186 181 178 179 178 170 167 167 153 127 132 124 119 126 125 119 113 100 98 103 98 99 106 100 95 91 94 99 105 104 120 92 86 86 88 90 92 95 96
192 185 183 176 185 185 187 190 206 211 206 169 143 141 131 124 125 132 125 120 108 105 105 98 96 108 101 100 98 98 96 96 105 73 82 82 81 81 79 74 66 69 73
183 182 184 176 179 186 197 206 196 189 155 139 139 136 134 134 137 132 125 115 115 115 108 104 110 109 104 100 101 98 97 97 91 93 90 85 86 81 75 67 57 47 52
152 167 173 180 188 195 190 198 182 167 145 142 139 139 141 135 132 128 121 120 127 118 111 114 117 107 102 100 99 96 92 88 90 86 86 86 83 81 75 61 43 19 13
141 146 153 166 176 185 188 176 171 159 147 149 146 138 137 143 130 123 125 135 127 119 115 119 111 104 100 95 92 91 92 93 97 94 94 89 86 81 70 60 5 3 1
134 141 145 160 168 178 182 176 173 155 155 155 148 135 132 136 131 132 136 137 125 122 123 117 110 105 99 93 94 99 104 103 92 100 92 91 89 81 74 58 33 33 1
132 111 129 129 150 162 181 173 162 151 158 157 152 131 142 133 131 131 133 124 119 120 116 119 109 107 102 94 90 97 107 105 134 98 94 91 92 80 63 36 41 57 48
130 132 128 116 115 127 145 162 162 153 157 152 143 150 128 133 130 138 127 126 117 113 118 112 108 109 117 91 91 96 95 98 94 95 93 93 79 64 47 15 27 40 68
128 128 119 110 125 125 133 148 157 158 150 134 144 158 133 126 137 136 124 124 122 116 127 123 120 111 80 129 101 96 129 93 93 94 94 96 79 65 42 6 7 5 15
129 120 120 119 124 138 133 145 150 149 131 136 143 140 133 119 115 101 124 133 88 59 114 101 317 149 106 116 133 166 123 115 113 115 108 81 53 23 15 9 346 350 350
165 166 189 148 137 119 127 134 139 143 153 134 155 152 102 132 163 142 130 138 149 117 133 111 135 115 104 83 123 137 119 137 130 125 67 15 5 359 358 351 350 345 340
171 174 196 170 167 157 142 131 155 152 137 181 167 174 142 178 119 139 104 87 119 134 177 147 148 141 120 126 158 145 141 157 156 141 311 332 337 338 345 349 352 349 350
172 178 198 179 178 173 158 158 160 159 173 168 194 163 167 169 156 155 167 139 174 172 119 62 84 29 72 179 180 157 154 178 181 320 335 337 351 345 345 347 355 4 8
174 187 180 173 187 173 172 169 169 173 169 174 216 179 180 171 171 167 100 202 183 129 140 163 127 135 206 161 188 158 209 232 314 334 350 347 346 337 354 13 5 8 17
188 195 190 174 193 184 180 181 163 202 180 192 185 195 190 189 188 177 149 214 145 163 183 187 126 130 297 165 38 311 240 247 304 348 305 340 344 355 338 3 2 3 4
194 193 194 187 190 190 192 193 180 196 181 195 192 195 190 203 198 203 188 196 146 184 229 191 177 159 145 181 158 241 235 258 291 314 334 344 318 341 358 353 349 353 358
194 194 200 200 189 181 177 193 188 184 185 183 185 204 199 208 203 205 176 196 193 187 197 206 174 8 131 244 103 302 334 340 336 339 337 308 295 346 337 347 349 355 350
199 199 197 200 201 202 201 204 191 181 192 189 194 187 206 206 210 212 219 214 218 207 213 213 208 184 219 257 187 177 286 286 123 101 296 329 331 13 349 325 350 351 358
221 201 198 193 190 187 187 188 193 190 190 189 205 210 200 202 207 217 217 225 219 222 228 222 221 220 173 243 247 238 180 286 32 314 326 318 339 11 311 349 326 338 352
224 212 205 198 194 197 195 190 193 197 199 202 198 225 222 223 228 230 228 224 225 225 231 236 233 232 229 210 284 291 271 277 273 256 314 316 21 338 327 349 315 331 338
218 224 216 205 203 205 205 209 200 202 203 207 205 232 245 240 230 236 234 225 223 227 240 240 241 239 240 241 241 258 290 301 324 321 286 334 314 313 325 315 314 325 317
211 223 227 215 210 212 210 211 211 207 211 203 210 234 234 238 225 231 243 237 226 228 243 244 241 241 243 255 255 271 272 262 274 308 348 293 316 326 303 332 312 295 287